RH
4 5 4 4 4 4 3 3 3 3 3 3 3 3 3 3 4 4 4 4 4 4 5 5 5 5 5 6 6 6 6 6 6 6 6 6 6 6 6 7 7 7 7
4 4 4 4 4 4 4 4 4 3 3 3 4 4 4 4 4 4 4 5 5 5 5 5 5 5 5 5 5 6 6 6 6 7 7 7 7 7 7 7 8 8 8
6 4 4 4 4 4 4 4 4 4 4 4 4 4 4 4 4 4 5 5 5 5 5 5 5 5 5 5 5 6 6 6 6 6 7 7 7 7 8 8 8 8 8
7 4 4 4 4 4 4 4 4 4 4 4 4 4 4 4 4 4 5 5 5 5 5 5 5 5 7 11 14 15 15 16 17 20 19 15 11 8 7 8 8 8 8
8 4 4 4 4 4 4 4 4 4 4 4 4 4 4 4 4 4 5 5 5 5 5 5 8 16 23 25 26 27 29 29 31 25 22 32 34 33 24 17 13 10 9
8 6 4 4 4 4 4 4 4 4 4 4 4 4 4 4 4 4 5 5 5 5 8 17 25 25 24 24 18 15 16 21 20 16 17 20 24 34 47 53 56 41 20
8 6 5 4 4 3 4 3 3 3 3 3 4 4 4 4 4 4 5 5 6 12 26 29 25 24 22 14 13 12 12 14 13 13 14 15 17 21 29 34 52 52 51
8 6 5 4 4 4 4 4 4 3 4 4 4 4 4 4 4 5 5 9 21 31 32 26 23 20 12 11 12 12 11 12 11 12 11 11 12 12 14 15 16 27 41
8 6 6 5 5 4 4 4 4 4 4 4 4 5 5 5 5 7 19 31 35 33 28 19 17 14 12 12 11 11 11 10 10 10 10 11 11 10 11 11 11 13 28
8 7 6 6 6 5 5 5 5 5 5 5 5 6 7 8 19 31 36 37 37 30 16 14 14 12 12 10 10 10 10 10 10 10 10 10 10 10 10 10 11 12 16
11 9 7 7 6 6 6 6 5 5 6 7 7 7 13 32 42 42 46 42 34 19 14 12 12 11 10 9 9 9 8 8 8 9 9 10 10 10 10 11 13 16 18
14 11 10 10 9 8 7 6 6 7 7 9 11 18 35 49 48 46 51 50 35 16 13 12 12 10 9 9 8 8 7 7 7 7 8 9 9 10 10 11 15 21 28
16 14 13 12 10 9 9 8 8 8 10 12 24 46 54 54 51 50 59 54 40 15 12 13 10 10 10 9 9 8 8 8 8 7 7 7 8 9 10 12 14 18 25
19 17 16 14 12 11 10 9 8 11 14 20 35 51 61 59 58 58 69 64 42 22 14 13 11 11 11 10 10 10 9 9 9 9 8 8 8 8 10 11 12 16 18
24 21 20 18 15 12 12 12 12 14 19 31 43 58 66 64 62 64 69 65 38 23 17 14 13 12 12 11 10 10 10 9 9 9 9 8 8 8 8 10 10 13 17
39 28 27 24 20 18 18 19 19 19 24 34 52 64 68 64 64 70 75 50 32 21 19 16 14 13 12 11 11 10 10 10 9 9 9 9 8 8 8 8 9 11 14
48 35 36 30 30 27 26 26 26 26 29 39 58 67 67 69 69 74 68 43 30 22 21 19 16 13 12 11 11 11 10 10 9 9 9 9 9 8 7 7 7 9 11
55 49 49 41 38 38 38 38 38 37 39 51 62 70 68 70 73 73 50 39 35 28 24 21 16 14 12 12 12 11 10 10 9 9 9 9 9 8 8 7 7 8 9
66 66 68 60 50 47 49 50 50 52 57 61 69 69 70 77 81 59 46 36 33 31 25 22 17 14 13 12 12 11 11 10 9 9 9 9 9 9 8 8 8 9 9
99 77 78 74 64 57 56 57 55 54 62 64 65 67 76 90 82 48 47 40 34 27 24 21 17 14 12 12 11 12 11 11 10 10 9 9 9 9 9 9 9 10 11
100 96 92 86 82 82 67 61 61 57 60 62 67 77 87 99 83 54 53 49 41 34 24 21 17 14 12 12 12 11 11 11 11 11 10 10 9 10 9 9 10 11 12
91 99 95 97 99 79 88 76 62 68 73 72 71 86 94 100 84 76 61 69 57 42 25 19 18 15 13 13 12 12 12 12 11 11 11 11 10 10 10 10 11 11 12
99 100 100 99 99 100 98 88 87 83 82 79 79 94 91 99 85 88 84 76 71 57 43 19 17 16 16 17 16 14 14 13 13 12 12 12 11 12 11 12 12 12 12
99 99 99 100 100 100 100 99 99 94 95 83 86 89 88 100 96 86 87 86 78 71 64 30 18 18 17 19 18 16 16 16 14 13 13 12 13 13 13 13 13 13 13
97 99 100 100 100 99 99 99 99 100 95 91 82 88 92 93 97 95 95 94 95 86 79 52 34 18 18 17 17 17 17 17 16 15 14 13 14 14 14 16 14 14 14
99 97 97 99 100 100 97 100 100 100 100 99 100 87 90 99 90 97 99 88 94 87 84 80 52 25 20 20 19 18 19 17 18 16 17 17 15 14 14 15 17 18 17
Wind_Speed
24 22 20 19 19 20 19 18 17 16 15 13 12 12 11 10 9 9 8 7 7 6 7 6 7 7 7 8 8 9 9 9 9 10 10 10 11 11 11 11 12 13 13
25 23 22 21 20 21 20 19 18 16 15 14 12 11 11 10 9 9 8 7 7 7 6 6 7 7 6 7 8 8 8 8 8 9 9 9 10 10 10 11 11 12 12
27 24 24 22 21 22 21 20 19 18 16 14 13 12 11 11 10 9 8 8 7 6 6 6 6 6 6 7 7 8 7 8 8 9 9 9 9 9 9 10 10 11 11
28 26 25 23 22 22 21 20 19 18 17 15 14 13 13 12 11 10 9 8 7 7 6 6 5 6 7 6 6 6 6 7 8 8 9 8 8 9 9 9 9 10 10
30 29 27 25 23 22 21 20 19 19 16 15 16 15 15 14 13 11 10 9 8 7 7 6 5 4 3 3 3 4 4 5 7 8 9 8 8 8 9 9 9 10 9
31 31 30 28 25 24 23 22 21 19 19 18 17 16 15 14 13 12 11 10 9 8 8 5 3 0 1 2 3 5 5 6 8 10 10 9 9 8 7 8 8 8 9
32 32 30 29 27 25 23 22 22 22 20 20 19 18 17 16 15 14 13 11 10 8 6 3 2 2 1 2 3 5 6 7 8 8 9 10 10 10 9 9 8 8 8
33 33 32 30 29 27 26 24 23 21 22 20 19 18 17 17 16 15 13 11 9 7 6 5 4 3 2 2 2 4 6 8 9 9 10 10 10 10 9 10 10 9 7
34 33 32 31 29 28 26 24 23 22 21 20 20 17 16 16 15 14 12 10 9 8 7 6 5 4 3 3 2 3 5 8 9 10 11 11 12 12 11 10 10 10 8
35 34 33 31 30 29 28 25 24 23 22 20 20 20 17 15 11 12 11 10 10 9 8 7 6 5 4 3 2 2 4 6 8 9 10 10 11 12 12 12 11 11 9
37 35 34 32 32 31 29 28 27 26 24 22 20 20 20 17 14 12 10 10 10 10 9 8 7 6 5 3 1 2 4 6 7 8 9 10 10 11 12 12 12 11 10
39 38 37 34 32 30 29 29 28 26 25 25 23 21 20 14 11 11 11 12 12 12 11 10 9 7 6 4 2 2 4 6 7 8 9 10 11 11 12 12 12 11 10
41 39 37 35 33 32 33 32 30 29 28 28 27 24 22 18 16 16 15 14 14 13 13 12 11 9 8 5 3 2 3 5 6 8 9 10 10 11 12 12 11 11 11
40 37 37 36 35 35 34 33 31 30 30 31 30 27 24 20 18 18 17 16 16 16 15 14 13 11 9 6 4 1 2 3 6 8 9 10 11 11 11 12 12 11 12
44 42 40 39 37 36 36 35 34 34 33 33 31 28 25 22 21 20 19 19 18 17 16 15 14 13 10 8 5 3 1 3 5 7 9 11 11 11 11 12 13 12 12
46 45 43 40 38 38 38 37 36 36 36 34 33 30 26 25 24 22 21 20 19 19 18 17 15 14 12 10 8 6 4 3 4 6 9 11 12 12 12 12 12 12 13
48 46 44 42 41 40 39 39 38 38 38 37 35 32 30 28 26 25 24 23 22 21 20 19 17 16 15 12 10 8 6 6 6 6 9 11 12 12 12 13 13 13 14
53 50 47 46 43 42 41 41 39 38 38 38 36 35 32 30 28 28 26 25 24 25 24 22 21 19 18 16 13 10 9 9 8 9 9 10 11 12 12 13 14 15 15
58 54 52 50 47 44 43 42 41 41 41 40 39 35 33 32 31 31 31 29 27 27 27 26 24 23 21 18 16 14 13 12 11 10 11 12 12 13 13 13 14 16 16
56 58 57 53 51 48 46 44 44 44 43 41 39 36 35 34 33 32 32 31 29 29 28 29 28 26 24 21 19 17 17 16 15 13 12 14 14 15 15 16 16 16 17
40 61 61 58 56 54 51 49 47 46 45 43 41 40 38 36 34 33 33 32 32 31 30 29 29 28 26 24 21 21 20 19 18 18 17 16 17 17 18 18 18 18 19
48 51 49 61 62 62 55 52 50 49 47 47 45 42 41 39 38 36 35 35 34 32 31 30 30 30 29 27 26 25 25 22 21 21 21 20 20 19 20 20 20 20 21
40 46 37 54 62 63 61 56 55 53 52 50 48 47 46 45 42 41 39 37 37 36 33 33 33 32 33 32 31 31 28 26 25 24 24 23 22 22 23 23 23 23 23
37 43 38 36 49 48 48 62 59 59 57 54 52 50 47 48 48 45 44 42 40 38 37 36 34 35 35 35 34 34 32 29 28 28 28 26 25 25 25 27 26 26 26
39 35 34 35 46 47 48 55 55 59 61 58 55 55 54 53 57 50 50 48 45 43 42 40 38 38 38 38 36 36 34 32 31 30 31 28 28 29 27 27 29 28 27
35 38 38 39 31 41 42 63 52 59 60 60 60 58 56 55 54 54 55 53 51 46 45 43 42 41 39 38 38 37 37 36 34 32 32 34 31 33 31 28 28 28 28
Wind_Direction
208 201 195 183 175 175 174 177 172 170 167 166 163 158 153 150 144 139 135 133 128 122 108 101 93 85 76 71 67 63 58 55 48 45 46 45 44 42 39 36 35 36 40
209 210 204 195 178 180 177 176 176 177 174 171 170 169 161 158 156 152 149 149 141 134 127 114 102 96 84 75 66 62 54 55 47 43 40 40 34 37 37 31 31 31 34
207 210 211 203 187 187 183 183 184 182 181 178 176 177 174 170 169 166 164 162 153 145 135 121 112 102 91 80 70 60 50 47 43 39 33 33 29 25 30 24 25 25 26
207 206 209 210 193 193 188 188 186 188 186 182 183 184 185 181 178 178 176 171 163 155 141 130 114 102 93 78 67 54 43 34 34 29 20 22 20 17 21 20 18 19 19
209 205 205 208 202 194 195 192 192 188 192 192 192 191 191 188 186 184 182 178 171 161 149 136 119 100 71 60 50 48 28 17 14 7 3 358 2 8 15 12 9 11 11
208 208 204 203 205 201 197 197 195 198 194 197 199 197 195 192 190 189 186 181 175 166 153 149 145 271 346 39 18 13 5 12 9 0 4 359 358 360 3 358 356 4 6
207 208 207 203 205 207 202 200 202 202 206 204 201 201 198 197 195 192 189 183 177 175 179 203 225 221 279 326 14 6 4 6 9 7 4 0 356 353 355 354 344 348 353
209 208 209 207 206 208 207 206 207 210 206 207 205 203 205 198 197 192 188 186 195 212 220 221 214 227 283 310 10 10 3 3 6 9 1 2 360 355 356 350 342 337 343
209 210 209 208 208 208 210 209 208 207 210 210 206 205 206 206 196 191 194 207 223 229 223 222 220 231 251 279 317 16 12 8 9 8 8 5 2 3 4 1 352 341 336
211 210 210 207 208 208 208 208 208 206 206 208 210 193 197 194 201 207 220 226 228 229 224 219 212 222 244 257 285 18 24 16 12 11 12 6 4 4 4 4 0 350 343
212 210 209 207 207 209 208 207 206 205 202 197 204 201 191 195 204 216 227 233 233 231 226 218 217 225 236 242 195 49 26 20 13 11 10 6 7 5 5 8 5 1 355
210 211 211 208 206 210 210 208 205 203 202 190 193 197 196 204 224 232 229 233 234 231 225 224 225 219 214 213 168 86 39 23 14 9 5 3 4 5 8 10 8 6 360
212 214 214 211 209 209 210 208 207 203 200 194 192 195 202 208 219 224 229 235 236 232 226 224 222 211 208 201 173 111 62 29 14 6 1 2 0 0 5 5 7 2 356
218 216 216 216 212 211 212 209 208 204 201 199 199 201 206 217 223 225 227 235 238 236 231 224 218 212 207 204 191 158 69 22 6 1 357 355 354 356 358 358 358 359 355
219 217 217 216 215 213 212 211 210 207 204 204 205 206 212 220 224 225 232 236 234 230 231 227 220 215 207 202 200 213 277 348 353 350 352 350 349 349 348 351 350 352 351
221 221 220 218 216 215 214 213 211 210 209 209 209 213 220 226 227 229 233 234 231 227 223 223 220 219 216 212 215 226 249 290 322 336 339 343 344 342 342 344 343 344 346
220 222 223 221 218 218 216 215 213 212 212 212 213 218 225 229 232 232 231 231 228 225 223 223 223 223 225 222 225 234 252 271 292 310 322 331 336 337 337 338 340 341 342
217 219 221 223 221 219 218 218 218 217 216 217 219 223 226 230 232 232 232 228 226 224 226 227 225 226 229 230 233 240 248 261 274 288 304 315 322 325 326 330 336 337 339
218 218 220 221 221 220 221 221 220 220 221 223 223 225 227 234 231 231 231 228 225 224 225 228 229 229 231 235 239 244 251 259 267 279 293 302 309 312 313 315 322 332 337
225 221 222 219 221 220 221 222 224 224 225 225 225 225 230 231 231 233 229 227 227 226 227 229 232 233 234 236 241 247 252 260 269 276 281 286 295 298 301 307 314 322 326
234 226 232 223 223 222 221 221 224 225 225 226 224 224 226 229 231 232 229 228 231 232 232 233 235 237 238 239 244 249 254 259 266 271 276 282 286 290 296 302 307 310 315
218 227 229 226 229 222 221 222 223 225 225 226 227 224 228 228 229 230 231 230 232 236 237 237 236 238 240 243 246 251 255 261 265 269 273 279 283 288 293 297 298 300 306
220 223 238 234 228 226 223 224 224 224 225 227 228 226 226 229 229 231 233 235 235 239 241 241 239 239 242 245 247 251 257 260 264 268 271 276 280 284 287 290 292 296 299
250 248 246 229 222 232 230 233 220 225 224 226 228 229 228 230 231 232 234 235 237 241 244 247 246 248 245 247 250 253 257 261 265 268 271 272 276 278 284 288 290 293 296
236 251 239 235 228 249 242 241 233 224 220 227 229 230 230 229 232 234 237 238 239 241 242 245 248 250 251 252 252 254 258 261 263 266 269 271 273 275 277 282 287 290 294
237 240 240 247 250 240 259 226 238 227 227 230 227 231 231 234 238 239 236 237 238 239 244 247 250 250 250 250 253 255 258 260 263 263 269 272 271 276 277 276 282 288 290